Location: Kra?nica
(53.4833°N, 14.6167°E)
Time: 17:42:29
(UTC+00:00)

Cosmos 1346 Rocket - Pass Details

Date: 23 May 2024
Orbit: 508 x 521 km, 81.2° (Epoch: 13 June)

Event Time Altitude Azimuth Distance (km) Brightness Sun altitude
Rises 00:38:09 0° 338° (NNW) 2,662 7.0 -12.8°
Reaches altitude 10° 00:40:30 10° 327° (NNW) 1,770 5.9 -12.7°
Maximum altitude 00:43:50 28° 268° (W) 1,014 3.9 -12.4°
Enters shadow 00:45:45 18° 224° (SW) 1,313 4.2 -12.3°
